FALCON 9 DEB, 52893

Orbit data source: Space-Track

FALCON 9 DEB, 52893 is space debris in LEO originally from a launch on Sun, 19 Jun 2022 UTC launched from the Air Force Eastern Test Range (AFETR). Debris objects in space refer to the collection of defunct objects orbiting the Earth. Examples of debris include non-operational satellites, rocket bodies, and fragments generated from explosions, collisions, or faulty payload assembly.

Loading next visibility...
Identifier
52893, 2022-064F
Orbit
LEO
Country
Flag of USUS
Related business
Manufacturer
SpaceX/Seattle
Mission
Spacecraft
Bus & Motor
Unknown
Mass
~50 kg wet, ~50 kg dry
Launch date (UTC)
2022-06-19 (4 years ago)
Launch vehicle
Unknown
Launch site
Air Force Eastern Test Range (AFETR)
Object type
Payload
Rocket body
Debris
Shape & HBR
Cyl, 3.5 m
Radar Cross Section
0.110 m², Medium (>0.1 m² and < 1m²)

Expand to show TLE details & history
Last TLE update: 18 hours ago

TLE from 18 hours ago
0 FALCON 9 DEB
1 52893U 22064F   26125.39020382  .00008342  00000-0  24004-3 0  9994
2 52893  52.9870 170.8103 0007680  30.8764 329.2687 15.36642680173154
Epoch: 2026-05-05T09:21Z
TLE epoch observation values (Epoch: 2026-05-05T09:21:53.610Z)
Latitude
-0.00005°
Longitude
167.07115°
Altitude
452.419 km
Speed
7.645 km/s
True Right ascension
11h 23m 14s
True Declination
0° 00' 00"
Sunlit
Object was in full shadow at epoch
Visualization orbit readout
Latitude
Unknown
Longitude
Unknown
Altitude
Unknown
Speed
Unknown
Apparent Right ascension
Unknown
Apparent Declination
Unknown
Sunlit
N/A
Visualization observer readout
Local Sidereal Time
11:13:25
Azimuth
Unknown
Elevation
Unknown
Doppler factor
Unknown
Orbital elements
Apogee altitude
461.58 km
Perigee altitude
451.082 km
Semi-major axis
6,834.468 km
Eccentricity
0.00077
Inclination
52.987°
RAAN
170.8103°
Arg. of periapsis
30.8764°
True anomaly
329.22369°
Mean anomaly
329.2687°
Eccentric anomaly
329.2462°
Mean motion
3.84137 °/min
Orbital period
93.72 mins
BSTAR
0.00024004
Loading maneuver chart data...
Computing Atmospheric mass density...
Loading historical data...
Loading historical data...
Loading historical data...
Loading historical data...
Loading historical data...
Loading historical data...
Loading historical data...
Other satellites on launch #64 in the year 2022 (2022-06-19 UTC)

Documentation

Showing up to 5 results
|